SCP
0 0 0 0 0 0 0 0 0 0 0 0 0 0 0 0 0 0 0 0 0 0 0 0 0 0 0 0 0 0 0 0 0 0 0 0 0 0 0 0 0 0 0 0
0 0 0 0 0 0 0 0 0 0 0 0 0 0 0 0 0 0 0 0 0 0 0 0 0 0 0 0 0 0 0 0 0 0 0 0 0 0 0 0 0 0 0 0
0 0 0 0 0 0 0 0 0 0 0 0 0 0 0 0 0 0 0 0 0 0 0 0 0 0 0 0 0 0 0 0 0 0 0 0 0 0 0 0 0 0 0 0
0 0 0 0 0 0 0 0 0 0 0 0 0 0 0 0 0 0 0 0 0 0 0 0 0 0 0 0 0 0 0 0 0 0 0 0 0 0 0 0 0 0 0 0
0 0 0 0 0 0 0 0 0 0 0 0 0 0 0 0 0 0 0 0 0 0 0 0 0 0 0 0 0 0 0 0 0 0 0 0 0 0 0 0 0 0 0 0
0 0 0 0 0 0 0 0 0 0 0 0 0 0 0 0 0 0 0 0 0 0 0 0 0 0 0 0 0 0 0 0 0 0 0 0 0 0 0 0 0 0 0 0
0 0 0 0 0 0 0 0 0 0 0 0 0 0 0 0 0 0 0 0 0 0 0 0 0 0 0 0 0 0 0 0 0 0 0 0 0 0 0 0 0 0 0 0
0 0 0 0 0 0 0 0 0 0 0 0 0 0 0 0 0 0 0 0 0 0 0 0 0 0 0 0 0 0 0 0 0 0 0 0 0 0 0 0 0 0 0 0
0 0 0 0 0 0 0 0 0 0 0 0 0 0 0 0 0 0 0 0 0 0 0 0 0 0 0 0 0 0 0 0 0 0 0 0 0 0 0 0 0 0 0 0
0 0 0 0 0 0 0 0 0 0 0 0 0 0 0 0 0 0 0 0 0 0 0 0 0 0 0 0 0 0 0 0 0 0 0 0 0 0 0 0 0 0 0 0
0 0 0 0 0 0 0 0 0 0 0 0 0 0 0 0 0 0 0 0 0 0 0 0 0 0 0 0 0 0 0 0 0 0 0 0 0 0 0 0 0 0 0 0
0 0 0 0 0 0 0 0 0 0 0 0 0 0 0 0 0 0 0 0 0 0 0 0 0 0 0 0 0 0 0 0 0 0 0 0 0 0 0 0 0 0 0 0
0 0 0 0 0 0 0 0 0 0 0 0 0 0 0 0 0 0 0 0 0 0 0 0 0 0 0 0 0 0 0 0 0 0 0 0 0 0 0 0 0 0 0 0
0 0 0 0 0 0 0 0 0 0 0 0 0 0 0 0 0 0 0 0 0 0 0 0 0 0 0 0 0 0 0 0 0 0 0 0 0 0 0 0 0 0 0 0
0 0 0 0 0 0 0 0 0 0 0 0 0 0 0 0 0 0 0 0 0 0 0 0 0 0 0 0 0 0 0 0 0 0 0 0 0 0 0 0 0 0 0 0
0 0 0 0 0 0 0 0 0 0 0 0 0 0 0 0 0 0 0 0 0 0 0 0 0 0 0 0 0 0 0 0 0 0 0 0 0 0 0 0 0 0 0 0
0 0 0 0 0 0 0 0 0 0 0 0 0 0 0 0 0 0 0 0 0 0 0 0 0 0 0 0 0 0 0 0 0 0 0 0 0 0 0 0 0 0 0 0
0 0 0 0 0 0 0 0 0 0 0 0 0 0 0 0 0 0 0 0 0 0 0 0 0 0 0 0 0 0 0 0 0 0 0 0 0 0 0 0 0 0 0 0
0 0 0 0 0 0 0 0 0 0 0 0 0 0 0 0 0 0 0 0 0 0 0 0 0 0 0 0 0 0 0 0 0 0 0 0 0 0 0 0 0 0 0 0
0 0 0 0 0 0 0 0 0 0 0 0 0 0 0 0 0 0 0 0 0 0 0 0 0 0 0 0 0 0 0 0 0 0 0 0 0 0 0 0 0 0 0 0
0 0 0 0 0 0 0 0 0 0 0 0 0 0 0 0 0 0 0 0 0 0 0 0 0 0 0 0 0 0 0 0 0 0 0 0 0 0 0 0 0 0 0 0
0 0 0 0 0 0 0 0 0 0 0 0 0 0 0 0 0 0 0 0 0 0 0 0 0 0 0 0 0 0 0 0 0 0 0 0 0 0 0 0 0 0 0 0
0 0 0 0 0 0 0 0 0 0 0 0 0 0 0 0 0 0 0 0 0 0 0 0 0 0 0 0 0 0 0 0 0 0 0 0 0 0 0 0 0 0 0 0
0 0 0 0 0 0 0 0 0 0 0 0 0 0 0 0 0 0 0 0 0 0 0 0 0 0 0 0 0 0 0 0 0 0 0 0 0 0 0 0 0 0 0 0
0 0 0 0 0 0 0 0 0 0 0 0 0 0 0 0 0 0 0 0 0 0 0 0 0 0 0 0 0 0 0 0 0 0 0 0 0 0 0 0 0 0 0 0
0 0 0 0 0 0 0 0 0 0 0 0 0 0 0 0 0 0 0 0 0 0 0 0 0 0 0 0 0 0 0 0 0 0 0 0 0 0 0 0 0 0 0 0
0 0 0 0 0 0 0 0 0 0 0 0 0 0 0 0 0 0 0 0 0 0 0 0 0 0 0 0 0 0 0 0 0 0 0 0 0 0 0 0 0 0 0 0
Wind_Speed
17 19 20 22 24 21 21 22 21 25 28 28 22 18 17 16 14 10 5 4 7 9 10 12 13 13 14 15 15 16 17 16 15 15 15 14 13 12 10 9 8 6 5 3
16 19 20 23 23 20 19 18 21 25 27 22 16 13 13 12 10 7 4 6 9 11 12 13 13 14 14 15 15 15 16 16 15 15 14 13 12 11 10 8 7 5 3 2
10 12 15 12 9 10 10 11 12 15 17 15 13 11 10 9 7 5 5 9 11 12 12 12 13 14 15 16 16 15 16 16 15 15 14 12 11 10 9 7 5 4 2 1
7 10 7 4 4 9 12 11 10 13 15 13 10 7 6 6 3 3 7 11 12 12 12 12 13 14 14 15 16 16 16 15 14 14 13 12 10 9 7 5 4 2 1 2
4 7 11 8 3 5 6 7 7 9 11 9 6 4 4 8 4 6 9 11 12 12 13 14 14 15 16 15 16 16 15 14 13 13 12 11 9 8 5 4 2 1 1 3
4 6 6 6 7 4 5 5 6 8 9 6 5 2 6 8 8 11 12 12 13 14 14 14 14 15 16 16 15 15 14 13 12 11 11 10 8 6 4 2 1 1 2 4
7 6 8 7 7 5 4 7 10 7 5 3 3 4 5 7 11 12 13 14 14 14 13 13 14 15 16 15 15 14 14 13 12 10 9 8 7 5 3 1 0 2 4 4
5 7 7 2 4 3 6 7 7 5 3 3 7 8 8 10 12 13 13 14 14 13 13 12 13 15 16 15 14 14 13 12 11 9 7 6 6 4 2 0 2 3 5 6
6 7 4 3 5 6 5 6 5 3 2 8 9 9 10 11 12 12 13 13 13 15 15 12 12 14 17 15 14 14 13 11 10 9 7 5 4 3 1 1 2 4 4 5
7 9 7 6 4 3 3 3 3 2 5 8 11 12 12 11 12 12 12 13 13 15 15 14 13 13 15 14 13 13 12 10 8 7 6 4 2 1 1 2 3 4 5 6
7 8 6 1 2 3 4 5 7 8 8 11 13 13 13 12 12 12 12 12 12 14 15 15 14 14 13 12 12 12 11 8 7 5 4 3 2 2 2 2 4 6 6 7
5 3 3 2 3 3 5 6 8 10 12 11 11 14 14 13 12 12 13 13 14 15 16 15 14 13 11 10 11 11 9 7 5 4 3 2 1 1 1 3 6 8 9 10
2 2 2 4 4 5 7 8 9 10 12 13 12 13 14 14 13 13 14 14 15 15 15 14 14 12 9 8 9 9 8 6 4 3 2 2 2 3 4 3 5 6 8 11
3 4 3 3 5 7 10 11 12 13 12 12 13 13 14 15 14 15 14 14 15 15 15 14 13 11 9 8 9 9 8 6 4 3 2 2 3 4 4 6 7 7 8 11
3 2 4 8 10 10 11 12 13 13 13 13 12 13 14 16 16 14 14 14 15 15 13 13 12 10 8 8 8 8 6 4 3 3 2 2 3 4 4 6 6 7 8 9
5 7 9 10 11 11 11 11 13 13 12 13 13 13 14 15 15 14 13 12 14 14 12 11 11 8 7 7 7 5 5 6 4 2 2 3 3 4 5 6 7 7 8 8
9 8 8 10 11 12 11 10 11 13 13 13 14 15 15 16 15 13 12 11 12 12 10 10 10 8 7 6 5 4 4 4 4 2 3 3 4 4 5 6 6 7 8 9
4 6 10 13 14 14 12 12 12 13 13 14 15 15 15 15 15 13 12 12 13 11 9 8 8 7 7 6 4 3 3 3 2 3 3 3 4 4 5 6 7 8 8 9
4 6 10 12 13 13 14 13 13 13 14 14 15 14 13 13 13 13 12 12 12 10 7 8 10 7 6 6 4 3 3 2 2 2 3 5 4 4 5 6 7 8 8 8
5 8 11 13 13 13 14 14 14 14 13 14 15 15 14 12 12 12 11 9 6 6 8 8 7 6 5 5 4 3 2 2 3 3 3 4 5 5 5 6 7 8 8 8
8 10 12 13 13 12 13 15 15 15 14 14 14 15 14 13 11 11 10 8 6 8 8 9 5 4 4 4 3 2 2 2 3 3 4 4 5 5 6 6 7 7 8 8
8 10 12 13 14 13 12 12 13 15 15 13 14 14 14 13 11 9 7 7 8 9 6 5 4 5 5 4 2 2 2 3 3 3 4 4 5 6 6 7 7 7 8 8
8 9 11 12 13 14 13 11 12 13 14 14 15 14 13 11 8 8 7 6 7 9 6 5 6 7 5 2 1 2 2 3 3 4 4 4 5 5 6 7 7 7 8 8
9 10 10 12 13 14 14 12 11 10 12 12 11 12 12 10 6 5 7 11 11 10 6 7 7 6 4 1 1 2 3 3 4 4 5 5 5 5 6 7 7 7 8 10
9 10 11 13 12 11 13 14 14 13 12 10 11 9 6 5 7 8 8 9 11 9 5 6 6 4 2 1 2 3 3 4 5 5 5 5 5 6 6 7 7 8 8 9
9 8 8 7 8 10 10 11 10 9 10 10 8 6 6 7 9 8 7 8 8 7 5 3 2 2 1 2 3 4 4 5 5 5 5 6 7 7 7 7 9 8 8 9
8 8 7 8 8 8 8 9 10 10 10 10 9 7 8 8 7 7 7 6 5 4 3 2 1 1 2 3 3 4 4 4 5 5 5 6 6 6 7 9 8 8 8 9
Wind_Direction
260 272 273 268 268 262 248 244 251 263 270 278 284 285 283 282 283 284 272 199 159 148 141 139 138 135 133 131 133 134 131 128 126 125 124 124 124 124 125 124 125 128 131 138
271 270 271 273 273 272 265 254 250 262 271 279 286 285 279 278 278 266 229 170 151 144 141 141 139 136 133 132 133 131 127 124 124 125 124 124 124 125 124 124 127 132 138 157
282 298 294 275 279 282 274 256 251 259 267 288 292 288 288 290 279 240 178 154 148 146 144 141 140 138 135 132 130 126 123 123 125 125 124 124 125 126 128 129 133 143 153 240
289 305 282 296 309 299 295 285 266 262 274 289 295 303 318 321 289 176 148 142 141 138 135 132 131 130 128 127 125 123 122 123 125 125 124 126 127 126 127 130 139 153 201 292
274 287 282 289 306 309 305 306 320 294 289 295 299 296 25 15 38 111 127 130 129 130 129 127 129 130 127 123 123 122 123 125 127 127 127 128 128 127 128 135 143 178 280 294
261 287 287 312 334 321 265 314 359 337 318 318 322 10 33 25 68 95 106 113 118 122 123 125 129 130 125 123 122 122 123 123 123 125 126 126 124 124 124 133 143 280 287 293
243 261 275 292 315 306 324 341 335 339 327 321 30 45 56 63 78 92 102 110 116 120 121 125 129 127 120 118 117 118 118 117 116 117 116 118 118 118 123 127 272 298 298 300
212 235 261 324 327 330 319 317 314 326 348 99 102 93 84 83 87 95 103 109 113 113 112 118 124 121 114 112 115 117 115 113 112 111 109 113 116 117 114 22 310 311 309 311
225 249 302 319 284 304 312 299 315 326 94 126 116 106 99 95 95 97 101 105 109 111 109 109 113 117 114 117 120 117 114 112 110 108 106 111 113 112 94 338 322 318 314 312
262 268 280 293 301 332 357 350 7 75 126 131 122 119 110 104 100 100 101 105 110 110 107 105 105 107 112 118 119 116 115 114 115 114 112 107 97 70 360 340 326 317 316 316
257 277 290 300 25 37 66 73 80 87 101 118 121 117 114 108 104 103 104 105 106 106 106 107 107 107 111 117 119 115 113 113 112 108 109 100 75 30 340 336 325 321 323 321
251 297 294 1 65 89 95 92 99 104 101 103 111 115 111 105 105 106 106 107 106 106 107 109 108 106 107 113 118 117 115 113 109 106 96 69 22 349 251 299 321 320 322 322
281 64 69 95 99 101 102 104 103 104 109 109 107 110 110 108 107 108 108 109 109 109 110 110 106 102 102 106 109 109 110 109 105 97 78 41 2 343 333 318 307 316 326 329
182 152 153 150 126 114 110 107 102 99 100 104 110 110 110 109 109 108 108 110 110 109 108 107 103 98 99 102 102 101 102 97 94 85 61 25 359 343 334 330 327 328 331 331
184 197 136 123 121 120 119 119 111 106 107 107 110 113 116 115 112 110 111 113 110 107 107 107 103 100 100 102 102 101 99 96 89 74 46 14 352 337 330 325 321 321 323 329
115 112 126 134 137 138 136 133 124 122 121 119 115 114 113 112 111 112 116 119 116 112 112 110 105 105 104 104 104 99 91 84 72 53 29 5 348 337 332 328 324 323 326 332
144 151 155 156 158 155 150 145 137 134 130 125 123 122 120 117 113 111 109 107 106 108 110 111 110 108 102 100 99 94 90 83 63 40 19 356 340 336 331 326 325 324 323 327
197 183 177 169 162 153 145 139 137 135 131 130 130 129 129 127 124 121 118 114 108 102 100 107 111 110 102 94 89 85 79 67 42 20 360 344 339 334 327 324 323 321 320 323
177 163 161 159 155 149 144 141 138 133 132 136 134 131 127 125 125 126 127 124 121 117 117 120 120 111 102 90 85 78 70 54 27 3 346 335 331 329 327 322 320 319 319 319
145 145 144 143 142 143 140 138 135 134 136 136 131 127 126 127 129 128 124 114 110 120 129 127 120 109 99 88 81 71 57 29 1 347 337 331 330 327 323 321 319 318 316 315
140 140 139 138 136 137 140 141 140 138 139 142 138 134 132 131 132 130 126 116 116 125 126 125 116 111 98 92 80 64 36 4 345 338 331 326 323 320 319 318 315 312 311 311
142 141 139 138 135 134 137 139 138 137 137 135 131 131 131 132 129 118 108 120 134 134 126 121 116 110 103 94 71 43 8 345 334 328 323 320 317 315 313 314 310 308 306 306
140 139 139 139 136 131 127 130 135 136 137 138 140 141 138 135 136 132 125 131 135 134 126 120 116 110 102 82 51 8 345 334 327 322 317 312 308 305 305 306 304 303 303 304
137 136 133 131 130 129 127 126 123 122 124 124 128 133 133 128 113 103 122 137 137 129 118 117 112 102 89 57 9 341 333 327 321 312 307 306 303 300 298 299 299 300 299 300
132 132 136 141 140 133 128 125 120 120 117 114 116 115 113 116 123 127 126 131 131 122 109 104 97 87 62 10 341 330 324 317 311 310 310 308 302 299 297 296 295 297 297 296
140 143 146 144 135 135 138 136 132 132 129 123 115 109 107 108 114 116 115 118 121 115 105 92 74 49 2 337 327 322 317 313 312 308 301 297 295 294 293 295 297 294 293 294
132 131 126 122 129 138 139 136 135 137 138 133 126 124 122 119 117 117 117 116 115 110 104 91 53 355 333 325 318 316 310 305 302 298 295 291 289 289 290 292 292 292 292 292